Sault Sainte Marie, MI

4:37 AM EST on February 11, 2016 (GMT -0500)
Sault Ste Marie Municipal / Sanderson Field

Weather History for KANJ - March, 2013

Change the Weather History Date:

Friday, March 22, 2013

  Actual Average Record
Temperature  
Mean Temperature 26 °F 28 °F  
Max Temperature 32 °F 37 °F 57 °F (1987)
Min Temperature 20 °F 20 °F -12 °F (1934)
Degree Days  
Heating Degree Days 39 37  
Month to date heating degree days 920 892  
Since 1 July heating degree days 6652 7018  
Cooling Degree Days 0 0  
Month to date cooling degree days 0 0  
Year to date cooling degree days 0 0  
Moisture  
Dew Point 17 °F    
Average Humidity 69    
Maximum Humidity 81    
Minimum Humidity 57    
Precipitation  
Precipitation 0.00 in 0.07 in 0.97 in (1955)
Month to date precipitation 2.29 1.31  
Year to date precipitation 8.38 4.84  
Snow  
Snow 0.00 in 0.40 in 8.10 in (1955)
Month to date snowfall 18.0 10.3  
Since 1 July snowfall 138.8 110.5  
Snow Depth 29.00 in    
Sea Level Pressure  
Sea Level Pressure 29.94 in    
Wind  
Wind Speed 9 mph (NW)    
Max Wind Speed 17 mph    
Max Gust Speed 24 mph    
Visibility 10 miles    
Events      
T = Trace of Precipitation, MM = Missing Value Source: NWS Daily Summary

Daily Weather History Graph

Daily Weather History Graph

Search for Another Location

Airport or City:

Trip Planner

Search our weather history database for the weather conditions in past years. The results will help you decide how hot, cold, wet, or windy it might be!

Date:

Astronomy

Mar. 22, 2013 Rise Set
Actual Time 7:36 AM EDT 7:53 PM EDT
Civil Twilight 7:05 AM EDT 8:23 PM EDT
Nautical Twilight 6:30 AM EDT 8:58 PM EDT
Astronomical Twilight 5:53 AM EDT 9:35 PM EDT
Moon 3:05 PM EDT (3/22) 4:51 AM EDT (3/22)
Length of Visible Light 13h 17m
Length of Day
12h 17m
Waxing Gibbous, 77% of the Moon is Illuminated
Mar 22
Waxing Gibbous
Mar 27
Full
Apr 3
Last Quarter
Apr 10
New
Apr 18
First Quarter

Hourly Weather History & Observations

Time (EDT) Temp. Windchill Dew Point Humidity Pressure Visibility Wind Dir Wind Speed Gust Speed Precip Events Conditions
12:39 AM 26.1 °F 15.6 °F 17.1 °F 69% 29.85 in 10.0 mi NNW 11.5 mph - N/A   Overcast
12:55 AM 26.1 °F 14.5 °F 16.0 °F 66% 29.86 in 10.0 mi NNW 13.8 mph 21.9 mph N/A   Overcast
1:55 AM 26.1 °F 15.6 °F 16.0 °F 66% 29.88 in 10.0 mi NW 11.5 mph - N/A   Overcast
2:55 AM 24.1 °F 13.7 °F 15.1 °F 69% 29.88 in 10.0 mi NW 10.4 mph - N/A   Scattered Clouds
3:06 AM 24.1 °F 15.2 °F 15.1 °F 69% 29.85 in 10.0 mi NW 8.1 mph - N/A   Mostly Cloudy
3:55 AM 24.1 °F 16.0 °F 15.1 °F 69% 29.88 in 10.0 mi North 6.9 mph - N/A   Overcast
4:55 AM 21.9 °F 14.5 °F 14.0 °F 72% 29.89 in 10.0 mi WNW 5.8 mph - N/A   Mostly Cloudy
5:04 AM 21.0 °F 11.4 °F 12.9 °F 71% 29.86 in 10.0 mi NW 8.1 mph - N/A   Mostly Cloudy
5:12 AM 21.0 °F 11.4 °F 12.9 °F 71% 29.86 in 10.0 mi NW 8.1 mph - N/A   Mostly Cloudy
5:55 AM 21.0 °F 10.6 °F 10.9 °F 65% 29.91 in 10.0 mi North 9.2 mph - N/A   Overcast
6:55 AM 21.0 °F 14.6 °F 12.9 °F 71% 29.93 in 10.0 mi NW 4.6 mph - N/A   Overcast
7:55 AM 21.9 °F 14.5 °F 12.9 °F 68% 29.93 in 10.0 mi NW 5.8 mph - N/A   Overcast
8:55 AM 21.9 °F 13.4 °F 12.9 °F 68% 29.93 in 10.0 mi NW 6.9 mph - N/A   Overcast
9:55 AM 26.1 °F 17.6 °F 14.0 °F 60% 29.94 in 10.0 mi NW 8.1 mph - N/A   Clear
10:55 AM 27.0 °F 18.7 °F 15.1 °F 61% 29.93 in 10.0 mi WNW 8.1 mph - N/A   Scattered Clouds
11:55 AM 28.9 °F 21.1 °F 17.1 °F 61% 29.94 in 10.0 mi NW 8.1 mph - N/A   Clear
12:55 PM 30.0 °F 21.1 °F 18.0 °F 61% 29.94 in 10.0 mi NW 10.4 mph - N/A   Overcast
1:55 PM 32.0 °F 24.2 °F 19.0 °F 59% 29.93 in 10.0 mi NW 9.2 mph - N/A   Mostly Cloudy
2:55 PM 30.0 °F 20.5 °F 19.0 °F 64% 29.94 in 10.0 mi NW 11.5 mph 21.9 mph N/A   Partly Cloudy
3:55 PM 30.0 °F 21.7 °F 19.9 °F 66% 29.94 in 10.0 mi WNW 9.2 mph - N/A   Clear
4:55 PM 30.0 °F 18.7 °F 19.9 °F 66% 29.94 in 10.0 mi NW 16.1 mph 23.0 mph N/A   Clear
5:55 PM 28.9 °F 17.7 °F 19.9 °F 69% 29.96 in 10.0 mi NW 15.0 mph - N/A   Clear
6:55 PM 28.0 °F 17.5 °F 19.0 °F 69% 29.98 in 10.0 mi WNW 12.7 mph 19.6 mph N/A   Mostly Cloudy
7:23 PM 27.0 °F 16.1 °F 19.0 °F 72% 29.95 in 10.0 mi WNW 12.7 mph - N/A   Scattered Clouds
7:55 PM 27.0 °F 16.7 °F 19.0 °F 72% 29.99 in 10.0 mi West 11.5 mph - N/A   Overcast
8:29 PM 27.0 °F 16.7 °F 19.9 °F 75% 29.97 in 10.0 mi WNW 11.5 mph - N/A   Overcast
8:55 PM 27.0 °F 17.3 °F 21.0 °F 78% 30.00 in 10.0 mi WNW 10.4 mph - N/A   Overcast
9:18 PM 28.0 °F 18.6 °F 21.0 °F 75% 29.99 in 10.0 mi WNW 10.4 mph - N/A   Overcast
9:55 PM 28.0 °F 20.0 °F 21.0 °F 75% 30.02 in 10.0 mi WNW 8.1 mph - N/A   Overcast
10:27 PM 27.0 °F 18.0 °F 21.0 °F 78% 30.00 in 10.0 mi WNW 9.2 mph - N/A   Mostly Cloudy
10:55 PM 26.1 °F 17.6 °F 21.0 °F 81% 30.03 in 10.0 mi West 8.1 mph - N/A   Mostly Cloudy
11:55 PM 24.1 °F 16.0 °F 19.0 °F 81% 30.03 in 10.0 mi West 6.9 mph - N/A   Clear